Погода в Немнюге

Россия / Архангельская область     63°58′36″N   44°24′48″E
темп.,
°C
ветер,
м/с
пор.,
м/с
влажн.,
%
обл.,
%
осадки,
мм/ч
давл.,
гПа
погр.,
м
17 июня, чт
чт1700:00+10юз1166100 0.0 101118
03:00+9зсз1462100 0.0 1012159
06:00+7сз3893100 2.3 1013451
09:00+9сз148455 6.9 1015455
12:00+14зсз675860 0.6 10171396
15:00+14зсз364793 0.7 10181715
18:00+15з254377 0.0 10191329
21:00+12з39485 0.0 1020334
18 июня, пт
пт1800:00+8з26615 0.0 1021104
03:00+7юз276653 0.0 1021138
06:00+12ююз41349100 0.0 1019546
09:00+10ю3874100 0.4 1018286
12:00+14юз41090100 3.2 1017557
15:00+14ююв2493100 3.8 1015170
18:00+16ю249076 2.4 1014252
21:00+15ю2288100 3.0 101315
19 июня, сб
сб1900:00+13юз2687100 0.0 1013117
03:00+13юз2486100 0.0 101283
06:00+16зюз41377100 0.0 1010598
09:00+20з6136878 0.3 10101165
12:00+20зсз61266100 0.1 10111160
15:00+20зсз610565 0.1 10131379
18:00+22зсз48405 0.0 10142243
21:00+14с24729 0.0 1018100
20 июня, вс
вс2000:00+10ссв23816 0.0 102049
03:00+9всв1283100 0.0 102155
06:00+12юв2368100 0.0 1022290
09:00+11юв3784100 0.3 1020295
12:00+13юв4107931 0.1 1019499
15:00+25юв4745100 0.1 10131132
18:00+22в236693 0.4 1013202
21:00+18юв3681100 0.4 1012110
21 июня, пн
пн2100:00+18ююз311795 0.0 1011205
03:00+18зюз31375100 0.0 1011355
06:00+20зюз31083100 0.9 1011533
09:00+24з586386 0.9 10121347
12:00+23зсз6105227 0.2 10141553
15:00+22зсз694495 0.2 10161431
18:00+20зсз4751100 0.0 10171211
21:00+14с48677 0.0 1020623